Weather History for Grand Marais, MN

Change the Weather History Date:

Wednesday, May 7, 2014

  Actual Average (KCKC) Record (KCKC)
Temperature  
Mean Temperature 46 °F -  
Max Temperature 50 °F 53 °F 69 °F (1998)
Min Temperature 41 °F 33 °F 5 °F (1998)
Degree Days  
Heating Degree Days 20    
Moisture  
Dew Point 31 °F    
Average Humidity 59    
Maximum Humidity 79    
Minimum Humidity 46    
Precipitation  
Precipitation 0.18 in - - ()
Sea Level Pressure  
Sea Level Pressure 29.99 in    
Wind  
Wind Speed 14 mph (ENE)    
Max Wind Speed 23 mph    
Max Gust Speed 34 mph    
Averages and records for this station are not official NWS values.
T = Trace of Precipitation, MM = Missing Value Source: NWS Daily Summary

Daily Weather History Graph

Daily Weather History Graph

Search for Another Location

Airport:

Trip Planner

Search our weather history database for the weather conditions in past years. The results will help you decide how hot, cold, wet, or windy it might be!

Date:

Astronomy

May. 07, 2014 Rise Set
Actual Time 5:34 AM CDT 8:22 PM CDT
Civil Twilight 4:59 AM CDT 8:57 PM CDT
Nautical Twilight 4:13 AM CDT 9:43 PM CDT
Astronomical Twilight 3:20 AM CDT 10:37 PM CDT
Moon 12:57 PM CDT (5/7) 2:04 AM CDT (5/7)
Length of Visible Light 15h 58m
Length of Day
14h 47m
First Quarter, 55% of the Moon is Illuminated
May 7
First Quarter
May 14
Full
May 21
Last Quarter
May 28
New
Jun 5
First Quarter

Hourly Weather History & Observations

Time (CDT) Temp. Windchill Dew Point Humidity Pressure Visibility Wind Dir Wind Speed Gust Speed Precip Events Conditions
12:56 AM 43.0 °F 36.4 °F 28.9 °F 58% 30.06 in - ENE 12.7 mph - N/A   Unknown
1:56 AM 44.1 °F 39.0 °F 28.0 °F 53% 30.08 in - ENE 9.2 mph - N/A   Unknown
2:56 AM 41.0 °F 32.5 °F 28.9 °F 62% 30.03 in - ENE 17.3 mph 21.9 mph N/A   Unknown
3:56 AM 43.0 °F 37.2 °F 28.0 °F 56% 30.04 in - ENE 10.4 mph - N/A   Unknown
4:56 AM 42.1 °F 36.6 °F 28.9 °F 60% 30.04 in - ENE 9.2 mph - N/A   Unknown
5:56 AM 42.1 °F 35.2 °F 28.9 °F 60% 30.04 in - NE 12.7 mph - N/A   Unknown
6:56 AM 44.1 °F 38.1 °F 28.9 °F 55% 30.03 in - ENE 11.5 mph - N/A   Unknown
7:56 AM 41.0 °F 33.9 °F 30.0 °F 65% 30.05 in - ENE 12.7 mph - N/A   Unknown
8:56 AM 43.0 °F 36.4 °F 30.0 °F 60% 30.06 in - East 12.7 mph - N/A   Unknown
9:56 AM 44.1 °F 38.1 °F 30.0 °F 58% 30.05 in - ENE 11.5 mph - N/A   Unknown
10:56 AM 43.0 °F 36.8 °F 30.0 °F 60% 30.04 in - ENE 11.5 mph 20.7 mph N/A   Unknown
12:56 PM 44.1 °F 38.1 °F 30.0 °F 58% 30.00 in - ENE 11.5 mph 20.7 mph N/A   Unknown
1:56 PM 43.0 °F 35.4 °F 30.9 °F 62% 29.99 in - ENE 16.1 mph 24.2 mph N/A   Unknown
2:56 PM 43.0 °F 34.8 °F 30.9 °F 62% 29.99 in - ENE 18.4 mph 28.8 mph N/A   Unknown
3:56 PM 45.0 °F 37.6 °F 30.0 °F 56% 29.98 in - ENE 17.3 mph 31.1 mph N/A   Unknown
4:56 PM 48.9 °F - 28.9 °F 46% 29.95 in - ENE 19.6 mph 32.2 mph N/A   Unknown
5:56 PM 50.0 °F - 30.0 °F 46% 29.92 in - ENE 15.0 mph 29.9 mph N/A   Unknown
6:56 PM 48.9 °F - 28.9 °F 46% 29.93 in - ENE 19.6 mph 28.8 mph N/A   Unknown
7:56 PM 50.0 °F - 30.9 °F 48% 29.91 in - ENE 23.0 mph 34.5 mph N/A   Unknown
8:56 PM 45.0 °F 36.9 °F 32.0 °F 60% 29.93 in - ENE 20.7 mph 28.8 mph N/A   Unknown
9:56 PM 46.0 °F 40.6 °F 37.0 °F 71% 29.93 in - ENE 11.5 mph 27.6 mph 0.04 in   Unknown
10:56 PM 44.1 °F 37.7 °F 37.9 °F 79% 29.92 in - ENE 12.7 mph 21.9 mph 0.14 in   Unknown
11:56 PM 43.0 °F 34.8 °F 36.0 °F 76% 29.88 in - East 18.4 mph 26.5 mph N/A   Unknown